This is the latest recevied weather packets stored in our database for station/object N6SPP. If no packets are shown the sender has not sent any weather packets the latest 10 day(s).
| Time | Temp. | Humidity | Pressure | Rain* | Wind** | Luminosity | Snow |
|---|---|---|---|---|---|---|---|
| 1777603088 | 20° C | 59% | 1013.6 hPa | 0 mm | - | 15 W/m² | - |
| 1777602788 | 20.56° C | 57% | 1013.7 hPa | 0 mm | - | 19 W/m² | - |
| 1777602484 | 20.56° C | 57% | 1013.5 hPa | 0 mm | - | 22 W/m² | - |
| 1777602180 | 21.11° C | 58% | 1013.7 hPa | 0 mm | - | 25 W/m² | - |
| 1777601875 | 21.11° C | 57% | 1013.7 hPa | 0 mm | - | 30 W/m² | - |
| 1777601570 | 21.67° C | 56% | 1013.8 hPa | 0 mm | - | 30 W/m² | - |
| 1777601266 | 22.22° C | 56% | 1013.6 hPa | 0 mm | - | 36 W/m² | - |
| 1777600963 | 22.78° C | 54% | 1013.8 hPa | 0 mm | - | 48 W/m² | - |
| 1777600659 | 22.78° C | 53% | 1013.7 hPa | 0 mm | - | 53 W/m² | - |
| 1777600356 | 23.33° C | 53% | 1013.7 hPa | 0 mm | - | 42 W/m² | - |
| 1777600051 | 23.89° C | 50% | 1013.8 hPa | 0 mm | - | 66 W/m² | - |
| 1777599747 | 23.89° C | 49% | 1013.7 hPa | 0 mm | - | 79 W/m² | - |
| 1777599443 | 23.89° C | 49% | 1013.7 hPa | 0 mm | - | 89 W/m² | - |
| 1777599141 | 24.44° C | 50% | 1013.6 hPa | 0 mm | - | 98 W/m² | - |
| 1777598840 | 24.44° C | 50% | 1013.8 hPa | 0 mm | - | 105 W/m² | - |
| 1777598540 | 24.44° C | 49% | 1013.6 hPa | 0 mm | - | 118 W/m² | - |
| 1777598234 | 24.44° C | 50% | 1013.7 hPa | 0 mm | - | 125 W/m² | - |
| 1777597933 | 25° C | 49% | 1013.6 hPa | 0 mm | - | 134 W/m² | - |
| 1777597633 | 25.56° C | 49% | 1013.6 hPa | 0 mm | - | 151 W/m² | - |
| 1777597328 | 25.56° C | 49% | 1013.6 hPa | 0 mm | - | 171 W/m² | - |
| 1777597023 | 25.56° C | 50% | 1013.8 hPa | 0 mm | - | 185 W/m² | - |
| 1777596721 | 25.56° C | 49% | 1013.5 hPa | 0 mm | - | 172 W/m² | - |
| 1777596417 | 26.11° C | 49% | 1013.6 hPa | 0 mm | - | 214 W/m² | - |
| 1777596114 | 26.11° C | 48% | 1013.4 hPa | 0 mm | - | 229 W/m² | - |
| 1777595810 | 26.11° C | 47% | 1013.5 hPa | 0 mm | - | 110 W/m² | - |
* Rain latest hour (hover to see other rain measurements)
** Current wind speed in m/s (hover to see current wind gust speed)